Time,TemperatureF,DewpointF,PressureIn,WindDirection,WindDirectionDegrees,WindSpeedMPH,WindSpeedGustMPH,Humidity,HourlyPrecipIn,Conditions,Clouds,dailyrainin,SoftwareType,DateUTC
2013-02-01 00:02:00,4.0,-1.0,30.26,NNW,333,6.0,15.0,79,0.00,,,0.00,,2013-02-01 06:02:00,
2013-02-01 00:11:00,4.0,-1.0,30.26,NNW,333,6.0,15.0,79,0.00,,,0.00,,2013-02-01 06:11:00,
2013-02-01 00:22:00,4.0,-1.0,30.26,NNW,336,9.0,16.0,78,0.00,,,0.00,,2013-02-01 06:22:00,
2013-02-01 00:32:00,4.0,-1.0,30.26,NNW,336,9.0,16.0,78,0.00,,,0.00,,2013-02-01 06:32:00,
2013-02-01 00:42:00,4.0,-1.0,30.26,NNW,336,9.0,16.0,78,0.00,,,0.00,,2013-02-01 06:42:00,
2013-02-01 00:52:00,3.0,-3.0,30.28,NW,326,8.0,15.0,77,0.00,,,0.00,,2013-02-01 06:52:00,
2013-02-01 01:02:00,3.0,-3.0,30.28,NW,304,8.0,16.0,77,0.00,,,0.00,,2013-02-01 07:02:00,
2013-02-01 01:12:00,3.0,-3.0,30.28,NW,304,8.0,16.0,77,0.00,,,0.00,,2013-02-01 07:12:00,
2013-02-01 01:22:00,3.0,-3.0,30.28,NW,321,8.0,16.0,77,0.00,,,0.00,,2013-02-01 07:22:00,
2013-02-01 01:32:00,3.0,-3.0,30.29,NNW,335,7.0,14.0,77,0.00,,,0.00,,2013-02-01 07:32:00,
2013-02-01 01:42:00,3.0,-3.0,30.29,NNW,335,7.0,14.0,77,0.00,,,0.00,,2013-02-01 07:42:00,
2013-02-01 01:51:00,3.0,-3.0,30.30,WNW,287,6.0,16.0,77,0.00,,,0.00,,2013-02-01 07:51:00,
2013-02-01 02:01:00,3.0,-2.0,30.31,NNW,336,6.0,17.0,78,0.00,,,0.00,,2013-02-01 08:01:00,
2013-02-01 02:11:00,3.0,-2.0,30.31,NNW,336,6.0,17.0,78,0.00,,,0.00,,2013-02-01 08:11:00,
2013-02-01 02:21:00,3.0,-2.0,30.31,NNW,340,8.0,14.0,78,0.00,,,0.00,,2013-02-01 08:21:00,
2013-02-01 02:32:00,3.0,-3.0,30.32,West,277,9.0,15.0,77,0.00,,,0.00,,2013-02-01 08:32:00,
2013-02-01 02:42:00,3.0,-3.0,30.32,West,277,9.0,15.0,77,0.00,,,0.00,,2013-02-01 08:42:00,
2013-02-01 02:52:00,3.0,-2.0,30.33,WNW,300,5.0,14.0,78,0.00,,,0.00,,2013-02-01 08:52:00,
2013-02-01 03:01:00,2.0,-3.0,30.34,WNW,292,6.0,13.0,78,0.00,,,0.00,,2013-02-01 09:01:00,
2013-02-01 03:11:00,2.0,-3.0,30.34,WNW,292,6.0,13.0,78,0.00,,,0.00,,2013-02-01 09:11:00,
2013-02-01 03:21:00,2.0,-3.0,30.34,NNW,345,6.0,12.0,78,0.00,,,0.00,,2013-02-01 09:21:00,
2013-02-01 03:32:00,2.0,-4.0,30.35,North,351,7.0,16.0,77,0.00,,,0.00,,2013-02-01 09:32:00,
2013-02-01 03:41:00,2.0,-4.0,30.35,North,351,7.0,16.0,77,0.00,,,0.00,,2013-02-01 09:41:00,
2013-02-01 03:51:00,2.0,-3.0,30.35,West,271,4.0,12.0,79,0.00,,,0.00,,2013-02-01 09:51:00,
2013-02-01 04:01:00,2.0,-3.0,30.35,NNW,335,5.0,11.0,79,0.00,,,0.00,,2013-02-01 10:01:00,
2013-02-01 04:11:00,2.0,-3.0,30.35,NNW,335,5.0,11.0,79,0.00,,,0.00,,2013-02-01 10:11:00,
2013-02-01 04:21:00,2.0,-3.0,30.35,NNW,339,5.0,12.0,79,0.00,,,0.00,,2013-02-01 10:21:00,
2013-02-01 04:32:00,2.0,-3.0,30.35,WNW,282,5.0,11.0,80,0.00,,,0.00,,2013-02-01 10:32:00,
2013-02-01 04:42:00,2.0,-3.0,30.35,WNW,282,5.0,11.0,80,0.00,,,0.00,,2013-02-01 10:42:00,
2013-02-01 04:52:00,2.0,-3.0,30.35,NW,307,6.0,15.0,78,0.00,,,0.00,,2013-02-01 10:52:00,
2013-02-01 05:02:00,2.0,-3.0,30.35,North,355,7.0,16.0,78,0.00,,,0.00,,2013-02-01 11:02:00,
2013-02-01 05:11:00,2.0,-3.0,30.35,North,355,7.0,16.0,78,0.00,,,0.00,,2013-02-01 11:11:00,
2013-02-01 05:22:00,1.0,-4.0,30.36,NW,321,8.0,14.0,78,0.00,,,0.00,,2013-02-01 11:22:00,
2013-02-01 05:32:00,1.0,-4.0,30.36,NNW,337,6.0,13.0,78,0.00,,,0.00,,2013-02-01 11:32:00,
2013-02-01 05:42:00,1.0,-4.0,30.36,NNW,337,6.0,13.0,78,0.00,,,0.00,,2013-02-01 11:42:00,
2013-02-01 05:53:00,1.0,-4.0,30.37,NW,304,6.0,11.0,79,0.00,,,0.00,,2013-02-01 11:53:00,
2013-02-01 06:02:00,1.0,-4.0,30.37,NW,316,5.0,10.0,80,0.00,,,0.00,,2013-02-01 12:02:00,
2013-02-01 06:12:00,1.0,-4.0,30.37,NW,316,5.0,10.0,80,0.00,,,0.00,,2013-02-01 12:12:00,
2013-02-01 06:22:00,1.0,-4.0,30.37,NNW,344,7.0,14.0,79,0.00,,,0.00,,2013-02-01 12:22:00,
2013-02-01 06:32:00,1.0,-4.0,30.37,NNW,327,5.0,10.0,79,0.00,,,0.00,,2013-02-01 12:32:00,
2013-02-01 06:42:00,1.0,-4.0,30.37,NNW,327,5.0,10.0,79,0.00,,,0.00,,2013-02-01 12:42:00,
2013-02-01 06:52:00,1.0,-4.0,30.38,WNW,295,5.0,10.0,80,0.00,,,0.00,,2013-02-01 12:52:00,
2013-02-01 07:02:00,1.0,-4.0,30.39,NNW,327,4.0,10.0,80,0.00,,,0.00,,2013-02-01 13:02:00,
2013-02-01 07:11:00,1.0,-4.0,30.39,NNW,327,4.0,10.0,80,0.00,,,0.00,,2013-02-01 13:11:00,
2013-02-01 07:22:00,1.0,-4.0,30.39,WNW,297,5.0,10.0,80,0.00,,,0.00,,2013-02-01 13:22:00,
2013-02-01 07:32:00,1.0,-4.0,30.40,WNW,284,5.0,9.0,80,0.00,,,0.00,,2013-02-01 13:32:00,
2013-02-01 07:42:00,1.0,-4.0,30.40,WNW,284,5.0,9.0,80,0.00,,,0.00,,2013-02-01 13:42:00,
2013-02-01 07:52:00,1.0,-4.0,30.40,NNW,331,4.0,10.0,80,0.00,,,0.00,,2013-02-01 13:52:00,
2013-02-01 08:03:00,1.0,-4.0,30.40,NNW,346,6.0,11.0,80,0.00,,,0.00,,2013-02-01 14:03:00,
2013-02-01 08:11:00,1.0,-4.0,30.40,NNW,346,6.0,11.0,80,0.00,,,0.00,,2013-02-01 14:11:00,
2013-02-01 08:21:00,2.0,-3.0,30.40,NW,324,5.0,13.0,79,0.00,,,0.00,,2013-02-01 14:21:00,
2013-02-01 08:32:00,2.0,-3.0,30.40,NNW,346,6.0,11.0,79,0.00,,,0.00,,2013-02-01 14:32:00,
2013-02-01 08:42:00,2.0,-3.0,30.40,NNW,346,6.0,11.0,79,0.00,,,0.00,,2013-02-01 14:42:00,
2013-02-01 08:53:00,2.0,-4.0,30.41,NNW,346,6.0,11.0,77,0.00,,,0.00,,2013-02-01 14:53:00,
2013-02-01 09:02:00,3.0,-3.0,30.42,NNW,343,5.0,9.0,77,0.00,,,0.00,,2013-02-01 15:02:00,
2013-02-01 09:12:00,3.0,-3.0,30.42,North,360,4.0,9.0,76,0.00,,,0.00,,2013-02-01 15:12:00,
2013-02-01 09:22:00,3.0,-3.0,30.42,North,360,4.0,9.0,76,0.00,,,0.00,,2013-02-01 15:22:00,
2013-02-01 09:33:00,4.0,-2.0,30.43,North,349,4.0,11.0,76,0.00,,,0.00,,2013-02-01 15:33:00,
2013-02-01 09:42:00,4.0,-2.0,30.43,North,349,4.0,11.0,76,0.00,,,0.00,,2013-02-01 15:42:00,
2013-02-01 09:52:00,5.0,-1.0,30.43,West,277,3.0,9.0,76,0.00,,,0.00,,2013-02-01 15:52:00,
2013-02-01 10:03:00,5.0,-1.0,30.43,NNW,336,6.0,10.0,74,0.00,,,0.00,,2013-02-01 16:03:00,
2013-02-01 10:11:00,6.0,0.0,30.43,NNW,338,3.0,8.0,74,0.00,,,0.00,,2013-02-01 16:11:00,
2013-02-01 10:22:00,6.0,0.0,30.43,NNW,338,3.0,8.0,74,0.00,,,0.00,,2013-02-01 16:22:00,
2013-02-01 10:33:00,7.0,0.0,30.43,WNW,298,3.0,10.0,74,0.00,,,0.00,,2013-02-01 16:33:00,
2013-02-01 10:42:00,8.0,1.0,30.44,SW,217,3.0,8.0,74,0.00,,,0.00,,2013-02-01 16:42:00,
2013-02-01 10:52:00,8.0,1.0,30.44,SW,217,3.0,8.0,74,0.00,,,0.00,,2013-02-01 16:52:00,
2013-02-01 11:02:00,8.0,1.0,30.43,SW,220,3.0,9.0,74,0.00,,,0.00,,2013-02-01 17:02:00,
2013-02-01 11:12:00,8.0,1.0,30.43,SW,220,3.0,9.0,74,0.00,,,0.00,,2013-02-01 17:12:00,
2013-02-01 11:22:00,8.0,1.0,30.43,NW,321,5.0,11.0,73,0.00,,,0.00,,2013-02-01 17:22:00,
2013-02-01 11:32:00,9.0,2.0,30.43,WNW,286,3.0,10.0,74,0.00,,,0.00,,2013-02-01 17:32:00,
2013-02-01 11:42:00,9.0,2.0,30.43,WNW,286,3.0,10.0,74,0.00,,,0.00,,2013-02-01 17:42:00,
2013-02-01 11:53:00,9.0,2.0,30.42,WNW,289,3.0,9.0,73,0.00,,,0.00,,2013-02-01 17:53:00,
2013-02-01 12:02:00,10.0,3.0,30.42,WNW,291,2.0,11.0,74,0.00,,,0.00,,2013-02-01 18:02:00,
2013-02-01 12:12:00,10.0,3.0,30.42,WNW,291,2.0,11.0,74,0.00,,,0.00,,2013-02-01 18:12:00,
2013-02-01 12:22:00,11.0,4.0,30.42,NW,326,4.0,9.0,74,0.00,,,0.00,,2013-02-01 18:22:00,
2013-02-01 12:32:00,11.0,4.0,30.41,West,259,4.0,9.0,74,0.00,,,0.00,,2013-02-01 18:32:00,
2013-02-01 12:42:00,11.0,4.0,30.41,West,259,4.0,9.0,74,0.00,,,0.00,,2013-02-01 18:42:00,
2013-02-01 12:53:00,11.0,4.0,30.41,West,281,5.0,10.0,73,0.00,,,0.00,,2013-02-01 18:53:00,
2013-02-01 13:02:00,12.0,6.0,30.40,WSW,252,3.0,9.0,75,0.00,,,0.00,,2013-02-01 19:02:00,
2013-02-01 13:11:00,12.0,6.0,30.40,WSW,252,3.0,9.0,75,0.00,,,0.00,,2013-02-01 19:11:00,
2013-02-01 13:21:00,12.0,5.0,30.39,WSW,250,3.0,9.0,74,0.00,,,0.00,,2013-02-01 19:21:00,
2013-02-01 13:32:00,13.0,5.0,30.39,SW,236,3.0,11.0,71,0.00,,,0.00,,2013-02-01 19:32:00,
2013-02-01 13:41:00,13.0,5.0,30.39,SW,236,3.0,11.0,71,0.00,,,0.00,,2013-02-01 19:41:00,
2013-02-01 13:52:00,13.0,5.0,30.37,SSW,200,3.0,9.0,70,0.00,,,0.00,,2013-02-01 19:52:00,
2013-02-01 14:02:00,14.0,6.0,30.37,WSW,250,3.0,9.0,70,0.00,,,0.00,,2013-02-01 20:02:00,
2013-02-01 14:11:00,14.0,6.0,30.37,WSW,250,3.0,9.0,70,0.00,,,0.00,,2013-02-01 20:11:00,
2013-02-01 14:21:00,15.0,7.0,30.36,NW,312,4.0,14.0,70,0.00,,,0.00,,2013-02-01 20:21:00,
2013-02-01 14:31:00,15.0,7.0,30.36,WNW,290,2.0,9.0,70,0.00,,,0.00,,2013-02-01 20:31:00,
2013-02-01 14:42:00,15.0,7.0,30.36,WNW,290,2.0,9.0,70,0.00,,,0.00,,2013-02-01 20:42:00,
2013-02-01 14:52:00,15.0,6.0,30.35,West,280,2.0,9.0,68,0.00,,,0.00,,2013-02-01 20:52:00,
2013-02-01 15:02:00,16.0,7.0,30.35,SW,225,3.0,7.0,68,0.00,,,0.00,,2013-02-01 21:02:00,
2013-02-01 15:12:00,16.0,7.0,30.35,SW,225,3.0,7.0,68,0.00,,,0.00,,2013-02-01 21:12:00,
2013-02-01 15:21:00,16.0,7.0,30.35,SSW,213,3.0,8.0,67,0.00,,,0.00,,2013-02-01 21:21:00,
2013-02-01 15:32:00,16.0,7.0,30.35,SSW,213,3.0,8.0,67,0.00,,,0.00,,2013-02-01 21:32:00,
2013-02-01 15:41:00,16.0,7.0,30.35,SSW,213,3.0,8.0,67,0.00,,,0.00,,2013-02-01 21:41:00,
2013-02-01 15:52:00,17.0,8.0,30.35,WNW,283,2.0,8.0,66,0.00,,,0.00,,2013-02-01 21:52:00,
2013-02-01 16:02:00,17.0,8.0,30.34,WSW,248,1.0,9.0,66,0.00,,,0.00,,2013-02-01 22:02:00,
2013-02-01 16:11:00,17.0,8.0,30.34,WSW,248,1.0,9.0,66,0.00,,,0.00,,2013-02-01 22:11:00,
2013-02-01 16:21:00,16.0,7.0,30.33,West,268,2.0,8.0,67,0.00,,,0.00,,2013-02-01 22:21:00,
2013-02-01 16:32:00,16.0,7.0,30.33,WNW,299,3.0,7.0,67,0.00,,,0.00,,2013-02-01 22:32:00,
2013-02-01 16:42:00,16.0,7.0,30.33,WNW,299,3.0,7.0,67,0.00,,,0.00,,2013-02-01 22:42:00,
2013-02-01 16:52:00,16.0,7.0,30.34,WNW,286,3.0,7.0,68,0.00,,,0.00,,2013-02-01 22:52:00,
2013-02-01 17:01:00,15.0,7.0,30.33,West,266,2.0,7.0,69,0.00,,,0.00,,2013-02-01 23:01:00,
2013-02-01 17:11:00,15.0,7.0,30.33,West,266,2.0,7.0,69,0.00,,,0.00,,2013-02-01 23:11:00,
2013-02-01 17:21:00,15.0,7.0,30.33,NNW,334,1.0,7.0,71,0.00,,,0.00,,2013-02-01 23:21:00,
2013-02-01 17:31:00,15.0,8.0,30.32,NW,317,2.0,7.0,72,0.00,,,0.00,,2013-02-01 23:31:00,
2013-02-01 17:41:00,15.0,8.0,30.32,NW,317,2.0,7.0,72,0.00,,,0.00,,2013-02-01 23:41:00,
2013-02-01 17:52:00,16.0,8.0,30.32,SSW,205,0.0,4.0,71,0.00,,,0.00,,2013-02-01 23:52:00,
2013-02-01 18:02:00,16.0,9.0,30.32,NNW,327,1.0,4.0,72,0.00,,,0.00,,2013-02-02 00:02:00,
2013-02-01 18:11:00,16.0,9.0,30.32,NNW,327,1.0,4.0,72,0.00,,,0.00,,2013-02-02 00:11:00,
2013-02-01 18:21:00,16.0,8.0,30.31,WSW,247,1.0,5.0,71,0.00,,,0.00,,2013-02-02 00:21:00,
2013-02-01 18:32:00,16.0,8.0,30.31,SW,236,1.0,6.0,71,0.00,,,0.00,,2013-02-02 00:32:00,
2013-02-01 18:42:00,16.0,8.0,30.31,SW,236,1.0,6.0,71,0.00,,,0.00,,2013-02-02 00:42:00,
2013-02-01 18:52:00,16.0,8.0,30.30,SSW,203,2.0,5.0,70,0.00,,,0.00,,2013-02-02 00:52:00,
2013-02-01 19:02:00,16.0,8.0,30.30,SW,221,1.0,6.0,71,0.00,,,0.00,,2013-02-02 01:02:00,
2013-02-01 19:11:00,16.0,8.0,30.30,SW,221,1.0,6.0,71,0.00,,,0.00,,2013-02-02 01:11:00,
2013-02-01 19:21:00,17.0,10.0,30.31,SSW,200,0.0,5.0,72,0.00,,,0.00,,2013-02-02 01:21:00,
2013-02-01 19:32:00,17.0,10.0,30.30,SSW,200,2.0,5.0,72,0.00,,,0.00,,2013-02-02 01:32:00,
2013-02-01 19:41:00,17.0,10.0,30.30,SSW,200,2.0,5.0,72,0.00,,,0.00,,2013-02-02 01:41:00,
2013-02-01 19:52:00,17.0,10.0,30.30,SSW,200,2.0,5.0,72,0.00,,,0.00,,2013-02-02 01:52:00,
2013-02-01 20:01:00,17.0,9.0,30.28,SSW,206,3.0,6.0,71,0.00,,,0.00,,2013-02-02 02:01:00,
2013-02-01 20:11:00,17.0,9.0,30.28,SSW,206,3.0,6.0,71,0.00,,,0.00,,2013-02-02 02:11:00,
2013-02-01 20:21:00,17.0,9.0,30.27,SSW,213,2.0,7.0,71,0.00,,,0.00,,2013-02-02 02:21:00,
2013-02-01 20:32:00,17.0,9.0,30.26,SW,229,5.0,11.0,70,0.00,,,0.00,,2013-02-02 02:32:00,
2013-02-01 20:42:00,17.0,9.0,30.26,SW,229,5.0,11.0,70,0.00,,,0.00,,2013-02-02 02:42:00,
2013-02-01 20:52:00,17.0,9.0,30.25,South,173,4.0,10.0,71,0.00,,,0.00,,2013-02-02 02:52:00,
2013-02-01 21:02:00,18.0,11.0,30.25,SSW,201,4.0,9.0,72,0.00,,,0.00,,2013-02-02 03:02:00,
2013-02-01 21:11:00,18.0,11.0,30.25,SSW,201,4.0,9.0,72,0.00,,,0.00,,2013-02-02 03:11:00,
2013-02-01 21:21:00,18.0,11.0,30.24,SSW,203,3.0,9.0,74,0.00,,,0.00,,2013-02-02 03:21:00,
2013-02-01 21:32:00,18.0,11.0,30.24,SSW,194,4.0,9.0,74,0.00,,,0.00,,2013-02-02 03:32:00,
2013-02-01 21:42:00,18.0,12.0,30.24,South,190,3.0,7.0,78,0.00,,,0.00,,2013-02-02 03:42:00,
2013-02-01 21:52:00,18.0,12.0,30.24,South,190,3.0,7.0,78,0.00,,,0.00,,2013-02-02 03:52:00,
2013-02-01 22:01:00,18.0,12.0,30.24,South,180,3.0,6.0,78,0.00,,,0.00,,2013-02-02 04:01:00,
2013-02-01 22:11:00,18.0,12.0,30.24,South,180,3.0,6.0,78,0.00,,,0.00,,2013-02-02 04:11:00,
2013-02-01 22:21:00,18.0,12.0,30.23,SSW,208,2.0,6.0,78,0.00,,,0.00,,2013-02-02 04:21:00,
2013-02-01 22:32:00,18.0,12.0,30.22,SSW,196,2.0,7.0,77,0.00,,,0.00,,2013-02-02 04:32:00,
2013-02-01 22:42:00,18.0,12.0,30.22,SSW,196,2.0,7.0,77,0.00,,,0.00,,2013-02-02 04:42:00,
2013-02-01 22:52:00,19.0,13.0,30.22,SW,216,1.0,4.0,78,0.00,,,0.00,,2013-02-02 04:52:00,
2013-02-01 23:03:00,19.0,13.0,30.22,South,186,1.0,5.0,77,0.00,,,0.00,,2013-02-02 05:03:00,
2013-02-01 23:12:00,19.0,13.0,30.22,South,186,1.0,5.0,77,0.00,,,0.00,,2013-02-02 05:12:00,
2013-02-01 23:22:00,19.0,13.0,30.22,South,186,1.0,4.0,77,0.00,,,0.00,,2013-02-02 05:22:00,
2013-02-01 23:33:00,19.0,13.0,30.22,South,186,1.0,4.0,77,0.00,,,0.00,,2013-02-02 05:33:00,
2013-02-01 23:41:00,19.0,13.0,30.22,South,186,1.0,4.0,77,0.00,,,0.00,,2013-02-02 05:41:00,
2013-02-01 23:52:00,19.0,14.0,30.22,SSW,194,2.0,7.0,81,0.00,,,0.00,,2013-02-02 05:52:00,